Volver al catálogo

ARIANE 5 R/B

ActivoHEO
NORAD 41905·ROCKET BODY·🇫🇷 France

Lanzado Dec 21, 2016 desde Guiana Space Centre

Loading…

Próximos Pases (próximas 24 horas)

TLE

ActualizadoSource: Space-Track

Época: Sep 14, 2026, 00:29 UTC

1 41905U 16082C   26257.02022669  .00014715  00000-0  16540-2 0  9991
2 41905   6.7731  51.0484 6986046 114.5959 330.5088  2.68031659 86630

Sigue ARIANE 5 R/B en tiempo real con AllMySat

Download on the App Store